Wind_Speed
37 37 37 37 37 37 37 37 37 37 37 37 37 37 36 37 37 37 36 35 34 35 33 29 27 29 30 28 28 28 29 28 27 25 24 24 24 26 27 27 27 27 27 28 29 28 24 21 21 22 22 22
38 38 39 39 39 38 38 38 38 38 39 38 38 38 38 37 38 38 38 38 38 40 38 34 30 28 28 30 31 30 30 30 28 26 26 24 24 26 27 28 28 29 29 29 29 29 27 24 23 23 23 23
38 38 39 39 40 39 39 39 39 39 40 40 41 40 40 40 39 39 39 39 39 39 38 37 36 32 29 31 33 31 31 32 31 29 27 24 23 25 27 28 29 29 31 31 30 29 29 27 26 25 24 23
37 37 37 38 39 39 39 39 39 39 40 41 42 42 43 43 44 43 41 40 39 40 40 40 40 38 34 33 34 34 34 35 34 33 31 27 25 25 26 28 29 29 31 33 31 28 29 30 30 28 25 23
37 37 36 36 36 37 37 38 38 38 38 40 42 44 44 44 46 46 45 43 42 42 41 42 43 43 41 39 37 37 37 35 35 34 33 32 29 26 26 27 28 29 30 32 32 29 28 31 32 30 28 25
36 36 36 35 35 35 35 35 35 36 36 37 39 42 44 45 45 45 46 45 43 43 43 43 44 44 44 42 40 39 38 36 35 33 33 33 32 30 29 28 27 28 29 30 32 30 29 30 32 33 30 27
34 34 34 35 34 34 34 33 33 34 35 35 36 39 42 45 44 43 45 45 43 42 43 44 45 46 45 42 41 40 38 37 35 34 34 33 33 33 32 31 29 29 28 29 31 29 29 31 31 34 33 29
32 32 33 33 34 34 33 33 33 33 33 34 35 37 38 42 44 43 43 43 42 41 40 41 44 48 48 46 43 41 40 39 37 36 36 35 34 33 33 33 32 31 29 29 30 27 27 30 32 34 34 32
31 31 32 32 33 33 33 33 33 33 33 33 34 35 36 37 41 44 43 41 41 41 38 38 39 43 47 48 46 45 43 41 39 39 38 37 35 34 33 33 32 32 31 30 29 25 24 29 32 34 34 33
31 32 32 32 32 33 33 33 33 33 33 32 33 33 34 35 38 42 43 43 43 43 39 37 37 38 42 44 44 44 45 43 42 42 41 40 38 36 34 33 33 33 33 32 30 26 25 27 30 33 34 33
31 32 32 33 33 33 33 34 34 34 34 33 33 33 34 35 37 40 42 44 45 46 42 38 37 37 38 38 38 38 41 43 43 43 43 42 42 40 38 35 33 34 33 33 32 30 28 26 27 31 33 34
32 32 33 33 33 34 34 34 34 35 35 34 34 33 33 33 36 39 41 43 44 46 45 42 39 38 37 36 35 35 36 40 43 44 45 45 44 44 43 40 37 35 34 34 35 35 33 29 27 28 31 34
33 33 33 34 34 34 34 35 35 35 35 35 34 34 33 32 33 37 40 42 44 45 46 45 43 41 39 37 36 35 34 36 40 44 46 46 47 46 46 45 43 40 38 35 35 36 36 34 32 30 30 32
33 34 34 34 34 35 35 35 35 36 36 36 36 36 35 33 33 35 37 39 42 44 46 47 47 45 43 41 39 37 35 36 38 41 43 45 47 48 48 47 47 46 45 42 38 35 35 35 34 33 33 33
34 35 35 35 35 36 36 36 36 36 37 37 38 38 37 35 35 35 36 37 39 41 43 45 47 48 47 45 43 40 39 38 38 39 41 43 45 47 49 49 49 48 48 48 45 39 36 35 35 34 34 34
35 35 36 36 36 36 37 37 37 37 37 38 39 39 39 38 37 37 37 38 39 39 40 42 44 46 47 47 46 45 43 41 40 41 41 42 44 46 47 49 51 50 49 50 49 46 42 39 39 38 36 36
36 36 37 37 37 37 37 37 37 37 38 38 39 39 40 40 39 39 39 39 40 40 41 41 41 42 43 45 46 47 46 45 43 43 43 42 43 44 46 47 49 50 51 50 50 49 47 44 43 43 41 40
37 38 38 38 39 39 39 38 38 38 38 38 39 39 39 40 40 40 40 40 41 41 42 42 42 42 42 42 43 45 46 47 46 45 44 45 45 44 45 45 46 47 49 51 51 50 49 48 47 46 45 43
40 40 40 40 40 40 40 39 39 39 39 40 40 40 40 40 40 40 40 40 41 42 42 42 43 43 43 43 43 43 44 46 47 47 46 46 46 47 46 46 46 46 47 50 52 50 50 50 49 49 47 46
45 45 44 44 44 43 43 42 40 40 40 41 41 41 41 41 41 41 41 41 41 42 43 43 44 44 44 45 45 44 44 44 46 47 48 47 47 47 47 48 49 47 47 49 50 49 48 49 50 49 48 47
52 52 51 50 50 50 49 48 46 45 44 44 44 43 43 43 44 44 43 43 43 44 44 44 45 45 46 46 46 46 46 46 46 46 48 48 48 47 47 47 49 48 48 49 50 48 46 47 48 49 49 49
58 58 58 57 57 57 56 55 54 53 51 50 48 48 47 47 47 47 48 47 47 47 47 47 47 47 48 48 48 48 48 48 48 48 48 49 49 49 48 47 47 47 47 48 49 48 47 47 47 48 50 51
63 62 62 62 62 62 62 60 60 60 60 58 56 54 53 51 51 51 51 52 52 51 51 51 51 50 50 50 50 50 50 50 50 51 51 51 51 50 50 48 46 46 46 47 47 47 47 47 48 49 50 52
59 60 61 61 61 62 63 62 61 62 63 63 63 61 59 57 56 55 55 55 55 55 55 55 55 54 54 53 52 52 51 51 52 52 53 53 53 53 52 51 49 48 47 47 48 49 48 47 48 49 51 52
48 53 54 54 55 56 57 58 58 59 61 62 63 64 64 62 60 59 59 58 58 58 58 58 58 58 58 56 55 55 54 53 54 55 55 55 55 54 54 54 53 51 50 49 50 51 51 50 49 48 49 51
39 42 44 45 49 51 51 52 52 54 56 57 59 61 63 64 64 62 61 60 61 61 60 60 60 61 61 60 58 57 57 56 56 57 58 57 57 56 56 55 55 54 53 52 52 52 53 53 53 52 50 50
33 35 38 41 46 46 47 48 47 49 51 52 53 54 57 60 63 64 63 62 61 62 62 62 62 62 63 63 61 59 59 58 57 58 59 60 60 59 58 57 57 56 55 55 54 54 54 55 55 56 55 53
30 31 35 39 42 43 44 46 46 46 46 47 47 49 51 53 57 60 62 64 63 62 62 63 63 64 64 65 64 62 60 60 59 59 60 62 62 61 61 60 59 58 58 57 56 56 56 56 57 58 57 57
30 32 36 39 42 44 44 45 46 46 46 45 45 45 46 48 50 53 57 60 62 62 62 62 64 65 65 65 65 64 62 61 60 60 61 62 63 63 63 63 62 60 60 59 59 59 58 57 58 59 59 60
34 35 39 41 44 45 46 45 46 47 47 47 46 45 44 44 46 48 51 53 56 59 59 60 62 64 65 65 65 65 63 62 62 61 61 62 63 64 64 64 64 63 62 61 61 61 61 59 59 60 61 63
37 37 39 41 42 43 45 46 46 46 47 47 47 47 45 44 44 44 46 47 49 52 53 54 58 61 63 64 64 64 64 63 63 62 61 62 63 64 65 65 65 65 64 63 62 62 62 62 61 61 62 64
Wind_Direction
261 259 257 255 254 253 252 252 252 251 251 250 251 252 252 253 253 253 254 248 244 246 245 238 230 228 233 236 238 243 245 244 242 239 238 240 236 235 235 232 231 231 237 243 244 246 241 236 240 241 240 238
262 261 259 258 256 255 254 252 251 250 249 249 248 249 250 251 251 250 249 247 245 246 243 236 230 226 230 237 240 240 241 242 240 237 236 237 234 234 235 233 232 232 234 240 241 245 246 242 242 242 237 236
264 262 261 261 260 259 257 255 253 251 249 247 246 246 247 247 249 249 248 247 244 242 240 236 234 233 232 236 238 234 236 239 236 238 241 237 233 233 235 233 233 234 235 240 242 243 246 247 247 244 238 235
267 265 263 262 262 261 260 258 255 253 250 247 245 243 244 244 245 247 249 251 249 245 242 238 238 238 237 235 233 231 233 236 236 240 243 240 237 235 234 232 232 234 236 239 242 243 244 247 250 247 240 235
269 269 268 265 263 262 261 261 258 255 252 249 245 242 241 241 242 244 246 250 252 251 245 240 239 240 237 232 230 231 232 233 236 239 242 242 242 240 235 233 233 235 236 239 242 242 244 246 249 249 243 237
268 269 269 269 267 264 262 262 260 258 255 251 248 244 241 240 242 244 245 247 250 254 250 241 237 235 231 227 227 230 231 231 233 236 240 242 241 240 238 234 234 236 237 241 243 242 243 245 245 246 246 241
266 267 268 269 269 269 267 265 262 260 257 254 251 247 243 240 240 242 244 245 247 251 251 245 238 233 229 225 225 228 230 231 232 233 236 239 239 239 238 234 233 235 236 238 242 242 242 242 239 241 246 246
263 264 265 267 268 269 269 269 267 264 261 257 254 251 248 243 239 240 242 242 243 244 246 245 241 238 233 226 224 226 230 231 231 232 233 236 237 237 237 235 231 229 230 235 239 241 241 239 236 238 244 248
260 261 262 264 265 266 267 268 268 268 265 262 258 255 253 249 243 239 239 240 240 241 242 243 242 240 235 228 223 224 227 229 230 232 232 234 236 236 237 236 234 228 224 228 233 237 241 238 235 236 240 246
256 257 258 260 261 262 264 265 265 266 265 263 261 258 255 253 249 243 241 240 239 240 240 239 240 238 235 228 223 224 227 228 229 232 232 232 234 235 236 236 236 233 225 222 222 228 237 238 236 236 237 241
253 253 254 255 256 258 259 260 262 262 263 262 261 259 256 253 251 248 245 243 241 240 240 238 237 236 234 230 224 223 227 229 230 233 234 233 232 234 235 234 233 234 231 224 221 224 229 233 234 235 237 240
252 252 251 252 252 253 254 255 257 258 259 260 259 259 257 254 252 250 247 246 243 242 242 240 237 235 236 235 229 224 225 229 231 232 235 235 234 233 234 234 233 234 233 229 227 227 229 231 233 234 236 239
254 253 251 251 250 250 250 251 252 253 255 256 257 256 255 254 252 251 249 246 245 244 245 244 242 239 238 238 235 230 225 228 230 231 232 234 235 234 233 233 234 235 235 233 230 231 232 233 234 235 237 238
256 255 254 253 252 251 250 250 250 250 251 253 254 254 253 251 250 251 250 249 247 246 246 247 247 245 243 242 240 237 232 230 231 230 230 232 234 235 234 234 234 235 236 236 234 233 234 234 234 235 236 237
258 258 257 256 255 254 253 252 251 250 250 251 252 252 252 251 250 250 250 250 250 248 247 247 247 247 247 246 244 241 238 234 233 232 230 231 233 235 235 235 235 235 235 237 237 235 235 237 238 238 237 237
262 261 260 259 258 257 256 255 254 254 252 252 252 252 252 251 250 250 250 250 250 250 249 249 248 248 248 247 247 245 243 240 237 234 232 231 232 234 234 234 235 236 235 236 238 237 236 237 239 241 240 240
268 267 265 264 263 262 260 259 258 257 256 255 253 253 252 252 251 250 250 250 251 251 250 251 250 250 250 249 248 247 246 244 242 239 237 234 233 233 234 234 234 235 236 236 238 238 238 237 237 239 240 241
275 273 271 270 269 267 266 265 264 262 261 259 257 256 255 254 253 252 251 251 252 252 251 252 252 252 252 252 251 249 248 246 245 244 242 240 238 236 236 235 234 235 236 237 238 239 239 238 238 239 239 239
282 280 278 276 274 273 272 271 271 270 267 264 262 261 260 258 256 254 253 253 253 254 253 253 254 254 254 254 254 253 252 250 247 246 245 244 243 242 241 239 237 237 238 238 238 238 239 240 239 239 239 238
287 285 284 282 281 279 277 276 277 278 277 273 270 267 266 264 261 258 257 256 257 257 256 256 255 256 256 256 256 255 255 255 253 251 248 246 245 245 244 243 241 240 240 239 237 236 237 240 241 240 240 238
290 289 288 286 285 284 282 280 280 281 282 282 279 276 274 271 268 265 263 262 262 262 261 260 258 257 257 257 257 257 257 257 256 256 254 251 248 247 246 246 245 243 243 242 239 236 235 237 240 241 241 239
292 292 291 289 288 287 286 285 283 282 282 283 283 283 281 279 277 273 269 267 267 267 267 266 264 261 260 259 258 259 258 258 258 258 257 256 254 251 249 248 247 247 246 245 244 241 239 237 238 240 241 241
296 293 292 291 290 289 288 287 286 285 284 285 285 284 284 282 281 279 275 272 270 270 270 269 269 267 264 262 260 260 260 260 260 259 259 258 257 256 254 252 250 250 248 247 247 246 245 243 240 240 240 241
299 297 296 294 292 290 289 288 287 287 286 286 286 284 284 282 281 281 279 277 274 272 271 271 270 270 268 267 265 263 262 263 262 261 260 259 259 258 257 256 254 253 251 250 248 246 247 246 245 244 242 241
300 300 300 297 295 292 290 289 288 287 286 285 285 284 283 282 280 280 279 278 275 273 272 271 270 270 269 269 269 268 266 266 265 264 262 261 260 260 260 259 258 257 255 253 250 247 246 246 246 246 246 245
300 298 298 297 296 295 293 292 289 288 286 284 284 283 282 281 279 278 277 277 275 273 272 270 270 269 269 269 270 270 269 268 268 267 265 263 262 261 261 260 260 260 259 257 254 251 248 246 245 244 244 246
298 293 293 293 295 296 296 296 293 290 288 286 284 282 281 280 279 277 275 274 273 273 272 270 269 268 267 267 268 269 270 269 269 269 268 266 264 263 262 261 261 260 260 260 258 256 252 249 247 246 244 243
295 289 289 291 293 297 298 298 296 294 292 290 287 284 281 279 277 276 274 272 271 270 270 269 268 267 266 266 266 267 268 268 268 268 268 267 266 265 264 262 262 262 261 260 260 259 257 254 252 249 247 245
296 290 289 290 293 296 298 297 297 297 295 293 290 286 284 282 279 277 274 272 270 269 268 268 267 266 265 264 264 265 265 265 265 266 266 267 266 266 265 263 263 262 262 261 260 259 259 258 256 253 250 249
303 297 295 295 295 296 297 297 297 296 296 295 293 291 288 285 283 279 277 274 271 269 266 266 265 264 263 262 262 263 263 263 263 263 264 265 265 265 265 264 263 262 262 262 261 259 258 258 258 257 254 252
305 300 298 297 297 297 296 296 295 294 294 294 294 294 292 289 286 283 279 276 274 271 267 265 263 261 260 260 259 259 260 260 260 261 261 262 263 263 264 264 263 263 262 262 261 260 259 258 257 257 257 255
Height
3082 3082 3082 3083 3083 3084 3085 3086 3087 3087 3088 3089 3090 3091 3092 3091 3091 3092 3092 3092 3092 3091 3091 3092 3092 3092 3093 3094 3094 3095 3096 3096 3096 3097 3097 3098 3100 3101 3102 3103 3105 3105 3104 3105 3106 3106 3108 3110 3111 3111 3112 3112
3078 3078 3078 3078 3079 3079 3080 3081 3082 3083 3084 3085 3086 3087 3088 3088 3088 3089 3089 3089 3088 3088 3088 3088 3089 3089 3089 3091 3092 3093 3093 3093 3094 3094 3094 3095 3097 3099 3100 3101 3102 3102 3102 3102 3103 3104 3105 3107 3108 3109 3110 3110
3074 3074 3074 3074 3075 3075 3076 3076 3077 3078 3079 3080 3081 3082 3083 3084 3085 3085 3085 3085 3085 3085 3085 3084 3085 3086 3086 3088 3089 3090 3090 3090 3091 3091 3092 3093 3095 3096 3097 3098 3099 3100 3100 3100 3101 3102 3103 3104 3106 3107 3108 3108
3070 3070 3070 3071 3070 3071 3071 3072 3072 3073 3074 3075 3076 3077 3078 3079 3080 3080 3081 3082 3082 3082 3081 3081 3082 3082 3084 3085 3086 3087 3087 3087 3088 3088 3090 3091 3093 3094 3094 3096 3097 3098 3098 3098 3099 3100 3101 3102 3103 3104 3106 3106
3066 3066 3066 3066 3066 3067 3067 3067 3068 3068 3069 3070 3071 3072 3073 3074 3075 3076 3077 3077 3078 3078 3078 3079 3078 3078 3079 3080 3082 3083 3084 3084 3085 3086 3087 3089 3090 3091 3092 3093 3095 3095 3096 3096 3097 3098 3099 3099 3100 3101 3103 3104
3062 3062 3062 3062 3062 3063 3063 3063 3063 3064 3065 3065 3066 3067 3068 3070 3070 3071 3072 3073 3074 3075 3075 3075 3075 3075 3074 3075 3077 3079 3081 3081 3081 3083 3084 3085 3087 3089 3090 3091 3092 3093 3094 3094 3094 3096 3096 3097 3098 3098 3100 3101
3059 3059 3059 3059 3058 3059 3059 3059 3059 3060 3060 3061 3062 3062 3063 3065 3066 3067 3068 3069 3069 3071 3072 3071 3072 3072 3071 3071 3072 3074 3076 3078 3078 3080 3081 3082 3084 3085 3087 3087 3088 3089 3091 3092 3091 3093 3094 3094 3095 3096 3096 3098
3056 3056 3056 3055 3055 3055 3055 3055 3055 3056 3056 3057 3058 3058 3059 3060 3061 3063 3064 3065 3066 3067 3068 3068 3068 3068 3067 3066 3067 3070 3072 3074 3075 3076 3077 3079 3080 3082 3083 3084 3085 3086 3087 3089 3089 3090 3090 3091 3092 3093 3094 3095
3053 3053 3052 3052 3052 3052 3052 3052 3052 3052 3052 3053 3054 3054 3055 3056 3057 3058 3059 3060 3061 3062 3064 3064 3064 3064 3064 3063 3062 3064 3067 3069 3071 3072 3074 3075 3077 3078 3080 3081 3082 3082 3083 3085 3087 3087 3087 3088 3089 3090 3091 3092
3049 3049 3049 3049 3049 3049 3049 3049 3049 3049 3049 3049 3050 3051 3051 3052 3052 3053 3054 3055 3056 3058 3059 3060 3061 3061 3061 3060 3059 3060 3062 3064 3066 3068 3070 3071 3073 3075 3076 3078 3079 3079 3080 3081 3083 3084 3084 3086 3087 3088 3089 3090
3046 3046 3046 3046 3046 3046 3046 3046 3046 3045 3045 3045 3046 3046 3048 3049 3049 3049 3050 3051 3052 3053 3054 3055 3056 3057 3057 3057 3056 3056 3058 3059 3062 3064 3066 3066 3068 3071 3073 3074 3075 3076 3077 3078 3079 3080 3081 3083 3085 3086 3087 3088
3043 3043 3042 3042 3043 3042 3042 3042 3042 3042 3042 3042 3042 3042 3043 3044 3045 3045 3046 3046 3047 3048 3049 3050 3051 3052 3053 3053 3053 3052 3054 3055 3057 3059 3061 3062 3063 3065 3068 3070 3071 3073 3074 3075 3075 3076 3078 3080 3082 3084 3085 3086
3039 3039 3039 3039 3039 3039 3039 3039 3039 3039 3039 3038 3038 3038 3039 3040 3040 3041 3041 3042 3043 3044 3044 3045 3046 3047 3048 3049 3049 3049 3049 3051 3053 3055 3057 3058 3059 3061 3063 3065 3067 3069 3071 3072 3072 3073 3075 3077 3078 3081 3083 3084
3036 3036 3035 3035 3035 3035 3035 3035 3035 3035 3035 3035 3035 3034 3035 3036 3036 3036 3037 3037 3038 3039 3040 3040 3041 3042 3043 3044 3044 3045 3045 3046 3048 3050 3051 3053 3055 3056 3058 3060 3062 3064 3066 3068 3069 3070 3071 3073 3074 3077 3079 3081
3033 3032 3032 3031 3031 3031 3031 3031 3031 3031 3031 3031 3031 3031 3031 3032 3032 3032 3033 3033 3033 3034 3035 3036 3036 3037 3038 3039 3040 3040 3041 3042 3043 3044 3046 3048 3050 3052 3053 3055 3057 3059 3061 3063 3065 3066 3068 3070 3071 3073 3075 3077
3029 3028 3028 3027 3027 3027 3027 3027 3027 3027 3027 3027 3027 3027 3027 3027 3028 3028 3028 3028 3029 3030 3030 3031 3032 3032 3033 3034 3035 3036 3037 3038 3038 3039 3041 3042 3045 3047 3049 3050 3052 3053 3056 3058 3060 3062 3064 3066 3068 3069 3071 3074
3026 3025 3024 3024 3023 3022 3022 3022 3022 3022 3022 3022 3022 3022 3022 3022 3023 3023 3023 3024 3024 3025 3026 3026 3027 3028 3028 3029 3030 3031 3032 3033 3034 3035 3036 3038 3039 3041 3044 3045 3046 3048 3051 3053 3055 3057 3059 3062 3064 3065 3068 3070
3022 3021 3020 3020 3019 3018 3018 3018 3018 3017 3017 3017 3017 3017 3017 3017 3017 3018 3018 3019 3019 3020 3021 3021 3022 3023 3024 3024 3025 3026 3027 3028 3029 3031 3032 3033 3035 3036 3039 3040 3041 3043 3045 3047 3050 3052 3054 3057 3059 3061 3063 3065
3017 3016 3016 3015 3015 3014 3013 3013 3013 3013 3012 3012 3012 3012 3012 3012 3012 3012 3013 3013 3014 3014 3015 3016 3017 3018 3019 3019 3020 3021 3022 3023 3024 3026 3027 3028 3030 3031 3033 3034 3036 3038 3040 3042 3044 3046 3049 3051 3054 3056 3059 3061
3012 3011 3010 3010 3009 3009 3008 3008 3007 3007 3007 3007 3007 3007 3006 3006 3007 3007 3008 3008 3008 3008 3009 3010 3011 3012 3013 3014 3015 3016 3017 3018 3019 3020 3021 3023 3025 3026 3028 3029 3031 3033 3035 3037 3039 3041 3043 3046 3049 3051 3054 3057
3006 3005 3004 3004 3003 3003 3002 3002 3001 3001 3002 3002 3001 3001 3000 3001 3001 3001 3002 3002 3002 3002 3003 3004 3005 3006 3007 3008 3009 3010 3012 3013 3014 3015 3015 3017 3018 3020 3022 3024 3025 3027 3029 3031 3033 3036 3038 3040 3043 3046 3049 3052
2999 2998 2997 2997 2996 2996 2995 2995 2994 2994 2995 2996 2995 2995 2994 2994 2995 2995 2995 2996 2996 2996 2997 2998 2999 3000 3001 3002 3003 3004 3006 3007 3008 3009 3010 3011 3012 3014 3016 3018 3020 3022 3024 3026 3028 3030 3032 3035 3038 3041 3043 3046
2991 2991 2990 2989 2989 2988 2988 2988 2987 2986 2986 2986 2987 2988 2988 2988 2988 2989 2989 2989 2990 2991 2991 2991 2992 2993 2994 2995 2996 2997 2999 3001 3002 3003 3004 3005 3007 3008 3010 3012 3015 3017 3019 3020 3022 3025 3027 3029 3032 3035 3037 3040
2982 2982 2981 2981 2981 2980 2980 2980 2979 2978 2978 2977 2977 2978 2980 2981 2981 2982 2982 2983 2983 2984 2985 2985 2986 2986 2987 2988 2989 2991 2992 2994 2995 2996 2998 2999 3001 3002 3004 3006 3008 3011 3013 3015 3017 3019 3021 3024 3026 3029 3031 3034
2977 2975 2974 2973 2972 2972 2971 2971 2971 2971 2970 2970 2969 2969 2970 2972 2973 2974 2974 2975 2976 2977 2978 2979 2979 2980 2981 2982 2983 2984 2985 2987 2988 2989 2991 2993 2995 2996 2998 3000 3002 3004 3006 3009 3011 3013 3016 3018 3020 3023 3026 3028
2973 2971 2969 2967 2965 2964 2963 2963 2963 2962 2962 2962 2962 2962 2961 2962 2963 2965 2966 2967 2967 2969 2970 2971 2972 2973 2974 2975 2976 2977 2978 2980 2981 2982 2984 2986 2988 2990 2991 2993 2996 2998 3000 3002 3004 3007 3010 3012 3014 3017 3020 3022
2969 2966 2964 2962 2959 2957 2956 2955 2955 2954 2954 2954 2954 2954 2954 2953 2953 2954 2956 2958 2958 2960 2961 2962 2964 2966 2967 2968 2969 2970 2971 2972 2974 2975 2976 2978 2980 2983 2984 2987 2989 2991 2993 2995 2998 3000 3002 3006 3009 3010 3013 3016
2965 2962 2958 2956 2954 2953 2951 2949 2948 2947 2947 2946 2946 2946 2946 2946 2945 2945 2946 2947 2949 2950 2951 2953 2954 2957 2958 2960 2961 2963 2963 2964 2966 2967 2969 2970 2973 2975 2977 2979 2982 2984 2986 2989 2991 2993 2995 2999 3002 3004 3007 3010
2960 2957 2953 2950 2948 2947 2946 2944 2942 2941 2940 2939 2939 2939 2938 2938 2937 2936 2936 2937 2938 2940 2942 2943 2944 2946 2948 2950 2952 2953 2955 2957 2958 2960 2961 2963 2965 2967 2969 2971 2974 2976 2979 2981 2984 2986 2989 2992 2994 2996 3000 3001
2954 2952 2949 2946 2943 2941 2939 2938 2937 2935 2934 2932 2931 2931 2931 2931 2930 2928 2928 2928 2928 2929 2932 2932 2933 2935 2937 2940 2942 2944 2946 2948 2950 2952 2954 2955 2956 2958 2961 2963 2966 2968 2971 2974 2976 2979 2982 2985 2987 2989 2991 2994
2949 2947 2944 2942 2939 2937 2934 2932 2931 2930 2928 2926 2925 2924 2924 2923 2923 2922 2921 2921 2920 2920 2922 2922 2923 2924 2927 2929 2931 2933 2936 2939 2942 2944 2946 2947 2948 2950 2952 2954 2957 2960 2963 2966 2968 2971 2974 2977 2980 2983 2984 2986